User: anonymous   Login
Location: North Mitre
(40.7833°S, 175.4667°E)
Time: 20:10:42
(UTC+00:00)
Language:

Cosmos 494 Rocket - Orbit

View from above orbital plane
View from above orbital plane
View from above satellite
View from above satellite

Ground track
Ground track

The orbit data is extracted from the following two-line orbital elements,

1 06061U 72043B   24276.45923775  .00001319  00000-0  41331-3 0  9991
2 06061  74.0544 297.6976 0018370 120.9586 239.3378 14.41523139741724
Epoch (UTC): 02 October 2024 11:01:18
Eccentricity: 0.0018370
inclination: 74.0544°
perigee height: 740 km
apogee height: 766 km
right ascension of ascending node: 297.6976°
argument of perigee: 120.9586°
revolutions per day: 14.41523139
mean anomaly at epoch: 239.3378°
orbit number at epoch: 74172

The dashed part of the orbit path shows where the satellite is in the earth's shadow,  

DLR